EW4600 Weather Reports


Display with metric or nautical units.
time (UTC)temp
F
wind
direction
speed
MPH
gust
MPH
rain 1hr
in
rain 24hr
in
rain mn
in
humidity
%
barometer
mb
20200226203129 49 329 8.0 15.0 0.00 0.00 0.00 41 1030.1
20200226200138 47 313 10.0 18.0 0.00 0.00 0.00 44 1030.6
20200226193151 46 290 13.0 23.0 0.00 0.00 0.00 46 1031.0
20200226190120 46 325 8.0 23.0 0.00 0.00 0.00 50 1031.6
20200226184711 44 312 12.0 26.0 0.00 0.00 0.00 50 1032.0
20200226183217 43 311 14.0 25.0 0.00 0.00 0.00 50 1032.0
20200226180114 43 294 12.0 24.0 0.00 0.00 0.00 50 1032.3
20200226174608 43 310 10.0 20.0 0.00 0.00 0.00 54 1032.0
20200226173119 43 325 7.0 29.0 0.00 0.00 0.00 57 1032.1
20200226170117 42 302 9.0 19.0 0.00 0.00 0.00 58 1032.0
20200226164627 41 317 7.0 23.0 0.00 0.00 0.00 59 1032.0
20200226163104 41 337 7.0 21.0 0.00 0.00 0.00 61 1032.2
20200226160257 39 306 6.0 22.0 0.00 0.00 0.00 67 1032.1
20200226154550 39 326 8.0 21.0 0.00 0.00 0.00 67 1032.4
20200226153138 38 296 13.0 19.0 0.00 0.00 0.00 68 1032.2
20200226150138 37 342 15.0 24.0 0.00 0.00 0.00 72 1032.1
20200226144603 36 283 11.0 25.0 0.00 0.00 0.00 74 1032.0
20200226143047 37 261 12.0 21.0 0.00 0.00 0.00 71 1031.5
20200226140038 36 298 7.0 19.0 0.00 0.00 0.00 72 1031.1
20200226134556 36 304 10.0 25.0 0.00 0.00 0.00 72 1030.9
20200226133031 36 290 11.0 26.0 0.00 0.00 0.00 73 1030.7
20200226130028 37 319 12.0 23.0 0.00 0.00 0.00 73 1030.1
20200226124521 37 302 11.0 19.0 0.00 0.00 0.00 75 1029.7
20200226123037 37 315 7.0 21.0 0.00 0.00 0.00 76 1029.2
20200226120037 37 312 7.0 18.0 0.00 0.00 0.00 78 1028.7
20200226113007 37 323 8.0 17.0 0.00 0.00 0.00 81 1028.4
20200226110006 37 311 10.0 33.0 0.00 0.00 0.00 83 1027.5
20200226104503 37 325 9.0 24.0 0.00 0.00 0.00 84 1027.3
20200226103213 37 302 11.0 22.0 0.00 0.00 0.00 84 1027.2
20200226100147 38 296 11.0 23.0 0.00 0.00 0.00 83 1026.6
20200226094645 38 298 12.0 24.0 0.00 0.00 0.00 80 1026.2
20200226093250 38 307 12.0 21.0 0.00 0.00 0.00 80 1026.2
20200226090109 38 318 12.0 27.0 0.00 0.00 0.00 82 1025.9
20200226084640 38 296 12.0 23.0 0.00 0.00 0.00 83 1025.9
20200226083212 38 290 10.0 20.0 0.00 0.00 0.00 83 1025.7
20200226080138 38 319 13.0 34.0 0.00 0.00 0.00 80 1025.4
20200226074637 39 306 11.0 26.0 0.00 0.00 0.00 80 1025.3
20200226073205 39 334 12.0 24.0 0.00 0.00 0.00 79 1025.0
20200226070154 39 298 12.0 20.0 0.00 0.00 0.00 77 1024.7
20200226064539 39 324 14.0 28.0 0.00 0.00 0.00 75 1024.4
20200226063050 39 297 12.0 27.0 0.00 0.00 0.00 75 1024.3
20200226060040 39 302 10.0 21.0 0.00 0.00 0.00 72 1024.1
20200226054642 39 313 12.0 22.0 0.00 0.00 0.00 72 1024.0
20200226053109 39 300 9.0 18.0 0.00 0.00 0.00 71 1024.0
20200226050027 40 302 10.0 19.0 0.00 0.00 0.00 68 1023.6
20200226044532 40 301 13.0 22.0 0.00 0.00 0.00 66 1023.3
20200226043020 41 286 11.0 23.0 0.00 0.00 0.00 64 1023.1
20200226040025 43 292 9.0 17.0 0.00 0.00 0.00 53 1022.4
20200226034602 44 297 8.0 13.0 0.00 0.00 0.00 51 1022.0
20200226033114 44 309 6.0 14.0 0.00 0.00 0.00 49 1021.7
20200226030006 45 306 7.0 13.0 0.00 0.00 0.00 47 1021.0
20200226024517 45 273 8.0 13.0 0.00 0.00 0.00 47 1020.9
20200226023004 46 281 3.0 8.0 0.00 0.00 0.00 46 1020.7
20200226020037 47 292 6.0 12.0 0.00 0.00 0.00 45 1020.1
20200226014506 48 292 7.0 15.0 0.00 0.00 0.00 44 1020.0
20200226013039 48 289 8.0 16.0 0.00 0.00 0.00 43 1019.8
20200226004631 50 317 9.0 21.0 0.00 0.00 0.00 41 1019.0
20200226003101 51 300 12.0 17.0 0.00 0.00 0.00 40 1018.6
20200226000138 53 315 11.0 25.0 0.00 0.00 0.00 40 1017.7
20200225234603 54 257 10.0 21.0 0.00 0.00 0.00 36 1017.3
20200225233148 54 326 11.0 23.0 0.00 0.00 0.00 35 1016.9
20200225230049 55 312 11.0 20.0 0.00 0.00 0.00 38 1016.4
20200225224556 56 297 9.0 22.0 0.00 0.00 0.00 40 1016.2
20200225223113 55 360 10.0 23.0 0.00 0.00 0.00 41 1016.1
20200225220101 55 309 10.0 22.0 0.00 0.00 0.00 40 1015.7
20200225214600 56 300 14.0 24.0 0.00 0.00 0.00 41 1015.6
20200225213104 57 318 14.0 26.0 0.00 0.00 0.00 39 1015.5
20200225210138 56 293 13.0 23.0 0.00 0.00 0.00 40 1015.3
20200225204624 57 302 14.0 23.0 0.00 0.00 0.00 41 1015.3